STARLINK-31888, 59788

Orbit data source: Space-Track

STARLINK-31888, 59788 is a payload satellite owned by SpaceX/Seattle (US) in LEO that was launched on Sat, 18 May 2024 UTC via an FALCON 9 launch vehicle from the Air Force Eastern Test Range (AFETR). Payload-class satellites include a variety of spacecraft equipped with specific instruments for various scientific and technological missions. These include communications satellites like Starlink; space stations such as the ISS; scientific satellites like the Hubble; Earth observation satellites from companies like Planet Labs, Umbra, and HawkEye 360; GPS; miniature CubeSats for education and research; and military/defense satellites.

Loading next visibility...
Identifier
59788, 2024-093G
Orbit
LEO
Last TLE update
21 hours ago
Origin
Manufacturer
SpaceX/Seattle
Mission
Operational spacecraft
Bus & Motor
STARLINK V2M, Unknown motor
Mass
730 kg wet, ~700 kg dry
Launch date (UTC)
2024-05-18 (1 year ago)
Launch vehicle
FALCON 9
Launch site
Air Force Eastern Test Range (AFETR)
Object type
Payload
Rocket body
Debris
Shape & HBR
Unknown
Radar Cross Section
Large (>1 m²)

Expand to show TLE details & history

TLE from 21 hours ago
0 STARLINK-31888
1 59788U 24093G   25199.11798824 -.00000908  00000-0 -23461-4 0  9990
2 59788  43.0021  93.3798 0001277 271.9374  88.1332 15.27576198 66826
Epoch: 2025-07-18T02:49Z
TLE epoch observation values (Epoch: 2025-07-18T02:49:54.183Z)
Latitude
Longitude
114.73°
Altitude
482.808 km
Speed
7.626 km/s
True Right ascension
06h 13m 31s
True Declination
0° 00' 00"
Sunlit
Object was in daylight at epoch
Visualization orbit readout
Latitude
24.91557°
Longitude
-99.91044°
Altitude
483.539 km
Speed
7.627 km/s
Apparent Right ascension
19h 18m 12s
Apparent Declination
-14° 04' 16"
Sunlit
Object is in daylight
Visualization observer readout
Local Sidereal Time
12:38:44
Azimuth
94.773° ESE
Elevation
-16.471°
Doppler factor
1
Orbital elements
Apogee altitude
485.882 km
Perigee altitude
484.129 km
Semi-major axis
6,863.142 km
Eccentricity
0.00013
Inclination
43.0021°
RAAN
93.3798°
Arg. of periapsis
271.9374°
True anomaly
88.14783°
Mean anomaly
88.1332°
Eccentric anomaly
88.14051°
Mean motion
3.81732 °/min
Orbital period
94.31 mins
BSTAR
-0.000023461
Loading maneuver chart data...
Loading SW <> Apogee altitude chart data...
Loading historical data...
Loading historical data...
Loading historical data...
Loading historical data...
Loading historical data...
Loading historical data...
Loading historical data...
|